Home   Weather   Bamenda   Past weeks

Flag for Cameroon Past Weather in Bamenda, Cameroon — Yesterday and Last 2 Weeks

Now
90 °F

Scattered clouds.


Feels Like: 103 °F
Forecast: 51 / 88 °F
Wind: 8 mph from West

Location: Douala Obs.

Current Time: Dec 3, 2016 at 4:57:05 pm

Latest Report: Dec 3, 2016 at 4:00 pm


Visibility: N/A

Pressure: 29.71 "Hg (25.86 "Hg at 1240m altitude)

Humidity: 67%

Dew Point: 77 °F

Location of BamendaLocation

Past Weather in Bamenda — Graph

°F

Bamenda Temperature Yesterday

Maximum temperature yesterday: 90 °F (at 12:00 pm)
Minimum temperature yesterday: 79 °F (at 1:00 am)
Average temperature yesterday: 83 °F

High & Low Weather Summary for the Past Weeks

 TemperatureHumidityPressure
High93 °F (Nov 23, 3:00 pm)100% (Nov 19, 3:00 am)32.19 "Hg (Nov 19, 3:00 am)
Low73 °F (Nov 19, 3:00 am)59% (Nov 23, 1:00 pm)29.68 "Hg (Nov 20, 3:00 pm)
Average82 °F86%29.82 "Hg
* Reported Nov 18 3:00 pm — Dec 3 3:00 pm, Bamenda, Weather by CustomWeather, © 2016

Note: Actual official high and low records may vary slightly from our data, if they occured in-between our weather recording intervals... More about our weather records

Advertising

Bamenda Weather History for the Previous 24 Hours

Scroll right to see more
 ConditionsComfort  
Time TempWeatherWind HumidityBarometerVisibility
3:00 pm
Sat, Dec 3
90 °FPartly sunny.9 mph67%29.71 "HgN/A
2:00 pm91 °FPartly sunny.7 mph63%29.74 "HgN/A
1:00 pm91 °FPartly sunny.6 mph63%29.80 "HgN/A
12:00 pm88 °FPartly sunny.5 mph66%29.83 "HgN/A
11:00 am91 °FPartly sunny.1 mph63%29.83 "HgN/A
10:00 am86 °FPartly sunny.3 mph79%29.86 "HgN/A
9:00 am84 °FScattered clouds.2 mph84%29.86 "HgN/A
8:00 am81 °FScattered clouds.2 mph94%29.83 "HgN/A
7:00 am79 °FScattered clouds.No wind94%29.83 "HgN/A
6:00 am79 °FPassing clouds.2 mph94%29.83 "HgN/A
5:00 am79 °FPassing clouds.2 mph94%29.80 "HgN/A
4:00 am79 °FThunderstorms. Passing clouds.No wind100%29.80 "HgN/A
3:00 am79 °FThunderstorms. Passing clouds.No wind94%29.80 "HgN/A
2:00 am79 °FPassing clouds.No wind94%29.83 "HgN/A
1:00 am79 °FPassing clouds.2 mph100%29.83 "HgN/A
12:00 am81 °FPassing clouds.2 mph94%29.83 "HgN/A
11:00 pm
Fri, Dec 2
81 °FPassing clouds.2 mph94%29.86 "HgN/A
10:00 pm81 °FPassing clouds.2 mph94%29.86 "HgN/A
9:00 pm81 °FPassing clouds.No wind94%29.83 "HgN/A
8:00 pm82 °FPassing clouds.5 mph84%29.80 "HgN/A
7:00 pm82 °FPassing clouds.6 mph84%29.80 "HgN/A
6:00 pm84 °FPartly sunny.6 mph84%29.77 "HgN/A
5:00 pm86 °FPartly sunny.7 mph75%29.77 "HgN/A
4:00 pm88 °FScattered clouds.13 mph70%29.74 "HgN/A
Weather by CustomWeather, © 2016

See weather overviewHow to use our weather pages